This is the latest recevied weather packets stored in our database for station/object KG7MRB. If no packets are shown the sender has not sent any weather packets the latest 10 day(s).
| Time | Temp. | Humidity | Pressure | Rain* | Wind** | Luminosity | Snow |
|---|---|---|---|---|---|---|---|
| 1777715505 | 10° C | 96% | 1035 hPa | 0 mm | - | 0 W/m² | - |
| 1777715203 | 10° C | 96% | 1035 hPa | 0 mm | - | 0 W/m² | - |
| 1777714901 | 10° C | 96% | 1034.9 hPa | 0 mm | - | 0 W/m² | - |
| 1777714599 | 10° C | 96% | 1034.8 hPa | 0 mm | - | 0 W/m² | - |
| 1777714296 | 10.56° C | 95% | 1034.6 hPa | 0 mm | - | 0 W/m² | - |
| 1777713994 | 10.56° C | 95% | 1034.9 hPa | 0 mm | - | 0 W/m² | - |
| 1777713691 | 10.56° C | 95% | 1035 hPa | 0 mm | - | 0 W/m² | - |
| 1777713387 | 10.56° C | 95% | 1035.1 hPa | 0 mm | - | 0 W/m² | - |
| 1777713085 | 10.56° C | 95% | 1035 hPa | 0 mm | - | 0 W/m² | - |
| 1777712781 | 10.56° C | 94% | 1034.8 hPa | 0 mm | - | 0 W/m² | - |
| 1777712479 | 11.11° C | 94% | 1035 hPa | 0 mm | - | 0 W/m² | - |
| 1777712175 | 11.11° C | 93% | 1034.9 hPa | 0 mm | - | 0 W/m² | - |
| 1777711872 | 11.11° C | 93% | 1034.8 hPa | 0 mm | - | 0 W/m² | - |
| 1777711569 | 11.67° C | 92% | 1035 hPa | 0 mm | - | 0 W/m² | - |
| 1777711263 | 11.67° C | 92% | 1034.8 hPa | 0 mm | - | 0 W/m² | - |
| 1777710961 | 11.67° C | 91% | 1035 hPa | 0 mm | - | 0 W/m² | - |
| 1777710658 | 11.67° C | 91% | 1034.9 hPa | 0 mm | - | 0 W/m² | - |
| 1777710355 | 12.22° C | 90% | 1034.6 hPa | 0 mm | - | 0 W/m² | - |
| 1777710052 | 11.67° C | 91% | 1034.7 hPa | 0 mm | - | 0 W/m² | - |
| 1777709749 | 11.67° C | 92% | 1034.7 hPa | 0 mm | - | 0 W/m² | - |
| 1777709446 | 11.67° C | 91% | 1034.6 hPa | 0 mm | - | 0 W/m² | - |
| 1777709144 | 11.67° C | 90% | 1034.6 hPa | 0 mm | - | 0 W/m² | - |
| 1777708841 | 12.22° C | 89% | 1034.4 hPa | 0 mm | - | 0 W/m² | - |
| 1777708538 | 12.22° C | 89% | 1034.6 hPa | 0 mm | - | 0 W/m² | - |
| 1777708237 | 12.78° C | 88% | 1034.7 hPa | 0 mm | - | 0 W/m² | - |
* Rain latest hour (hover to see other rain measurements)
** Current wind speed in m/s (hover to see current wind gust speed)